Time,TemperatureF,DewpointF,PressureIn,WindDirection,WindDirectionDegrees,WindSpeedMPH,WindSpeedGustMPH,Humidity,HourlyPrecipIn,Conditions,Clouds,dailyrainin,SoftwareType,DateUTC
2013-01-14 00:02:00,45.2,18.5,30.21,NNE,19,9.0,0.0,34,0.00,,,0.00,WeatherTracker,2013-01-14 08:02:00,
2013-01-14 00:07:00,45.2,17.8,30.21,NNE,27,13.0,0.0,33,0.00,,,0.00,WeatherTracker,2013-01-14 08:07:00,
2013-01-14 00:12:00,45.2,17.8,30.21,NNW,342,5.0,0.0,33,0.00,,,0.00,WeatherTracker,2013-01-14 08:12:00,
2013-01-14 00:17:00,45.2,17.8,30.21,NNE,27,11.0,0.0,33,0.00,,,0.00,WeatherTracker,2013-01-14 08:17:00,
2013-01-14 00:22:00,45.2,17.8,30.21,NNW,347,7.0,0.0,33,0.00,,,0.00,WeatherTracker,2013-01-14 08:22:00,
2013-01-14 00:27:00,45.2,17.8,30.21,NNE,15,2.0,0.0,33,0.00,,,0.00,WeatherTracker,2013-01-14 08:27:00,
2013-01-14 00:32:00,45.2,17.8,30.21,NE,45,12.0,0.0,33,0.00,,,0.00,WeatherTracker,2013-01-14 08:32:00,
2013-01-14 00:37:00,45.1,17.0,30.22,NW,312,1.0,0.0,32,0.00,,,0.00,WeatherTracker,2013-01-14 08:37:00,
2013-01-14 00:42:00,45.0,16.9,30.22,NW,321,4.0,0.0,32,0.00,,,0.00,WeatherTracker,2013-01-14 08:42:00,
2013-01-14 00:47:00,44.9,17.6,30.22,NW,322,3.0,0.0,33,0.00,,,0.00,WeatherTracker,2013-01-14 08:47:00,
2013-01-14 00:52:00,44.8,17.5,30.22,North,11,7.0,0.0,33,0.00,,,0.00,WeatherTracker,2013-01-14 08:52:00,
2013-01-14 00:57:00,44.9,18.3,30.23,NW,309,14.0,0.0,34,0.00,,,0.00,WeatherTracker,2013-01-14 08:57:00,
2013-01-14 01:02:00,44.9,18.9,30.23,WNW,286,5.0,0.0,35,0.00,,,0.00,WeatherTracker,2013-01-14 09:02:00,
2013-01-14 01:07:00,44.9,19.6,30.23,NNW,345,7.0,0.0,36,0.00,,,0.00,WeatherTracker,2013-01-14 09:07:00,
2013-01-14 01:12:00,45.0,17.6,30.23,NE,46,2.0,0.0,33,0.00,,,0.00,WeatherTracker,2013-01-14 09:12:00,
2013-01-14 01:17:00,45.0,16.2,30.23,NNW,347,13.0,0.0,31,0.00,,,0.00,WeatherTracker,2013-01-14 09:17:00,
2013-01-14 01:22:00,45.0,16.2,30.23,North,356,6.0,0.0,31,0.00,,,0.00,WeatherTracker,2013-01-14 09:22:00,
2013-01-14 01:27:00,44.9,16.1,30.23,NNE,25,6.0,0.0,31,0.00,,,0.00,WeatherTracker,2013-01-14 09:27:00,
2013-01-14 01:32:00,44.8,16.8,30.24,NE,39,4.0,0.0,32,0.00,,,0.00,WeatherTracker,2013-01-14 09:32:00,
2013-01-14 01:37:00,44.8,16.8,30.24,NE,35,3.0,0.0,32,0.00,,,0.00,WeatherTracker,2013-01-14 09:37:00,
2013-01-14 01:42:00,44.7,15.9,30.24,North,352,6.0,0.0,31,0.00,,,0.00,WeatherTracker,2013-01-14 09:42:00,
2013-01-14 01:48:00,44.6,16.6,30.24,WNW,293,6.0,0.0,32,0.00,,,0.00,WeatherTracker,2013-01-14 09:48:00,
2013-01-14 01:52:00,44.5,15.8,30.24,NW,324,8.0,0.0,31,0.00,,,0.00,WeatherTracker,2013-01-14 09:52:00,
2013-01-14 01:58:00,44.5,15.8,30.24,North,354,8.0,0.0,31,0.00,,,0.00,WeatherTracker,2013-01-14 09:58:00,
2013-01-14 02:03:00,44.3,15.6,30.24,NNE,18,6.0,0.0,31,0.00,,,0.00,WeatherTracker,2013-01-14 10:03:00,
2013-01-14 02:08:00,44.4,14.9,30.24,NNW,346,9.0,0.0,30,0.00,,,0.00,WeatherTracker,2013-01-14 10:08:00,
2013-01-14 02:13:00,44.3,14.8,30.24,NNE,30,11.0,0.0,30,0.00,,,0.00,WeatherTracker,2013-01-14 10:13:00,
2013-01-14 02:18:00,44.3,14.8,30.25,North,360,9.0,0.0,30,0.00,,,0.00,WeatherTracker,2013-01-14 10:18:00,
2013-01-14 02:23:00,44.3,14.8,30.25,East,91,5.0,0.0,30,0.00,,,0.00,WeatherTracker,2013-01-14 10:23:00,
2013-01-14 02:28:00,44.4,15.7,30.25,NE,47,5.0,0.0,31,0.00,,,0.00,WeatherTracker,2013-01-14 10:28:00,
2013-01-14 02:33:00,44.4,15.7,30.25,NNE,22,5.0,0.0,31,0.00,,,0.00,WeatherTracker,2013-01-14 10:33:00,
2013-01-14 02:38:00,44.4,16.4,30.25,NE,36,6.0,0.0,32,0.00,,,0.00,WeatherTracker,2013-01-14 10:38:00,
2013-01-14 02:43:00,44.3,17.0,30.25,NNW,331,5.0,0.0,33,0.00,,,0.00,WeatherTracker,2013-01-14 10:43:00,
2013-01-14 02:48:00,44.2,16.9,30.25,NNE,15,3.0,0.0,33,0.00,,,0.00,WeatherTracker,2013-01-14 10:48:00,
2013-01-14 02:53:00,44.0,16.8,30.25,WSW,245,1.0,0.0,33,0.00,,,0.00,WeatherTracker,2013-01-14 10:53:00,
2013-01-14 02:58:00,43.9,16.7,30.26,NE,40,2.0,0.0,33,0.00,,,0.00,WeatherTracker,2013-01-14 10:58:00,
2013-01-14 03:03:00,43.9,16.7,30.26,NE,47,0.0,0.0,33,0.00,,,0.00,WeatherTracker,2013-01-14 11:03:00,
2013-01-14 03:08:00,44.0,16.8,30.26,NNW,334,3.0,0.0,33,0.00,,,0.00,WeatherTracker,2013-01-14 11:08:00,
2013-01-14 03:13:00,43.9,16.7,30.26,NE,56,2.0,0.0,33,0.00,,,0.00,WeatherTracker,2013-01-14 11:13:00,
2013-01-14 03:18:00,43.8,16.6,30.26,NNW,345,8.0,0.0,33,0.00,,,0.00,WeatherTracker,2013-01-14 11:18:00,
2013-01-14 03:23:00,43.8,16.6,30.27,WNW,302,0.0,0.0,33,0.00,,,0.00,WeatherTracker,2013-01-14 11:23:00,
2013-01-14 03:29:00,43.6,17.1,30.27,NE,44,2.0,0.0,34,0.00,,,0.00,WeatherTracker,2013-01-14 11:29:00,
2013-01-14 03:34:00,43.6,17.1,30.27,NE,36,9.0,0.0,34,0.00,,,0.00,WeatherTracker,2013-01-14 11:34:00,
2013-01-14 03:39:00,43.6,17.8,30.27,NE,40,3.0,0.0,35,0.00,,,0.00,WeatherTracker,2013-01-14 11:39:00,
2013-01-14 03:44:00,43.5,17.7,30.27,NNE,24,4.0,0.0,35,0.00,,,0.00,WeatherTracker,2013-01-14 11:44:00,
2013-01-14 03:49:00,43.3,18.2,30.27,NE,56,3.0,0.0,36,0.00,,,0.00,WeatherTracker,2013-01-14 11:49:00,
2013-01-14 03:54:00,43.0,17.9,30.27,NE,43,3.0,0.0,36,0.00,,,0.00,WeatherTracker,2013-01-14 11:54:00,
2013-01-14 03:59:00,42.9,17.8,30.27,North,359,3.0,0.0,36,0.00,,,0.00,WeatherTracker,2013-01-14 11:59:00,
2013-01-14 04:04:00,42.8,17.7,30.27,East,96,2.0,0.0,36,0.00,,,0.00,WeatherTracker,2013-01-14 12:04:00,
2013-01-14 04:09:00,42.7,17.6,30.26,ENE,62,0.0,0.0,36,0.00,,,0.00,WeatherTracker,2013-01-14 12:09:00,
2013-01-14 04:14:00,42.6,17.5,30.27,NE,49,1.0,0.0,36,0.00,,,0.00,WeatherTracker,2013-01-14 12:14:00,
2013-01-14 04:19:00,42.4,18.0,30.26,North,3,2.0,0.0,37,0.00,,,0.00,WeatherTracker,2013-01-14 12:19:00,
2013-01-14 04:24:00,42.3,17.9,30.26,ENE,77,3.0,0.0,37,0.00,,,0.00,WeatherTracker,2013-01-14 12:24:00,
2013-01-14 04:29:00,42.2,18.4,30.26,ENE,70,2.0,0.0,38,0.00,,,0.00,WeatherTracker,2013-01-14 12:29:00,
2013-01-14 04:34:00,42.1,18.9,30.27,ENE,66,2.0,0.0,39,0.00,,,0.00,WeatherTracker,2013-01-14 12:34:00,
2013-01-14 04:39:00,41.9,19.9,30.27,ENE,58,4.0,0.0,41,0.00,,,0.00,WeatherTracker,2013-01-14 12:39:00,
2013-01-14 04:44:00,41.8,19.3,30.27,ENE,71,3.0,0.0,40,0.00,,,0.00,WeatherTracker,2013-01-14 12:44:00,
2013-01-14 04:49:00,41.7,18.6,30.27,NE,53,0.0,0.0,39,0.00,,,0.00,WeatherTracker,2013-01-14 12:49:00,
2013-01-14 04:54:00,41.6,18.5,30.28,ENE,72,0.0,0.0,39,0.00,,,0.00,WeatherTracker,2013-01-14 12:54:00,
2013-01-14 04:59:00,41.5,19.0,30.28,NE,42,2.0,0.0,40,0.00,,,0.00,WeatherTracker,2013-01-14 12:59:00,
2013-01-14 05:04:00,41.4,19.5,30.28,NE,44,1.0,0.0,41,0.00,,,0.00,WeatherTracker,2013-01-14 13:04:00,
2013-01-14 05:09:00,41.3,20.0,30.28,NE,53,1.0,0.0,42,0.00,,,0.00,WeatherTracker,2013-01-14 13:09:00,
2013-01-14 05:14:00,41.1,20.3,30.28,ENE,76,2.0,0.0,43,0.00,,,0.00,WeatherTracker,2013-01-14 13:14:00,
2013-01-14 05:19:00,41.0,19.7,30.28,East,79,3.0,0.0,42,0.00,,,0.00,WeatherTracker,2013-01-14 13:19:00,
2013-01-14 05:24:00,40.9,20.1,30.28,East,79,0.0,0.0,43,0.00,,,0.00,WeatherTracker,2013-01-14 13:24:00,
2013-01-14 05:29:00,40.9,20.7,30.28,East,83,2.0,0.0,44,0.00,,,0.00,WeatherTracker,2013-01-14 13:29:00,
2013-01-14 05:34:00,40.7,20.5,30.28,East,84,2.0,0.0,44,0.00,,,0.00,WeatherTracker,2013-01-14 13:34:00,
2013-01-14 05:39:00,40.7,20.5,30.28,ESE,110,0.0,0.0,44,0.00,,,0.00,WeatherTracker,2013-01-14 13:39:00,
2013-01-14 05:44:00,40.6,20.4,30.29,SE,125,0.0,0.0,44,0.00,,,0.00,WeatherTracker,2013-01-14 13:44:00,
2013-01-14 05:49:00,40.2,21.1,30.29,SW,227,0.0,0.0,46,0.00,,,0.00,WeatherTracker,2013-01-14 13:49:00,
2013-01-14 05:54:00,39.7,21.6,30.29,SW,228,0.0,0.0,48,0.00,,,0.00,WeatherTracker,2013-01-14 13:54:00,
2013-01-14 05:59:00,39.3,20.8,30.30,SW,215,0.0,0.0,47,0.00,,,0.00,WeatherTracker,2013-01-14 13:59:00,
2013-01-14 06:04:00,39.6,21.0,30.30,ESE,122,2.0,0.0,47,0.00,,,0.00,WeatherTracker,2013-01-14 14:04:00,
2013-01-14 06:09:00,39.7,22.6,30.30,SE,136,1.0,0.0,50,0.00,,,0.00,WeatherTracker,2013-01-14 14:09:00,
2013-01-14 06:14:00,39.6,21.5,30.31,ESE,102,1.0,0.0,48,0.00,,,0.00,WeatherTracker,2013-01-14 14:14:00,
2013-01-14 06:20:00,39.8,21.2,30.31,ESE,119,1.0,0.0,47,0.00,,,0.00,WeatherTracker,2013-01-14 14:20:00,
2013-01-14 06:25:00,39.9,21.3,30.31,ESE,115,1.0,0.0,47,0.00,,,0.00,WeatherTracker,2013-01-14 14:25:00,
2013-01-14 06:30:00,40.0,20.9,30.32,ENE,72,3.0,0.0,46,0.00,,,0.00,WeatherTracker,2013-01-14 14:30:00,
2013-01-14 06:35:00,40.1,21.0,30.32,East,87,2.0,0.0,46,0.00,,,0.00,WeatherTracker,2013-01-14 14:35:00,
2013-01-14 06:40:00,40.1,20.5,30.32,NE,51,1.0,0.0,45,0.00,,,0.00,WeatherTracker,2013-01-14 14:40:00,
2013-01-14 06:45:00,40.0,19.3,30.33,NE,56,4.0,0.0,43,0.00,,,0.00,WeatherTracker,2013-01-14 14:45:00,
2013-01-14 06:50:00,39.9,18.7,30.33,NE,41,2.0,0.0,42,0.00,,,0.00,WeatherTracker,2013-01-14 14:50:00,
2013-01-14 06:55:00,39.9,18.7,30.33,NE,43,0.0,0.0,42,0.00,,,0.00,WeatherTracker,2013-01-14 14:55:00,
2013-01-14 07:00:00,40.0,19.3,30.33,East,100,1.0,0.0,43,0.00,,,0.00,WeatherTracker,2013-01-14 15:00:00,
2013-01-14 07:05:00,39.9,19.2,30.33,East,82,2.0,0.0,43,0.00,,,0.00,WeatherTracker,2013-01-14 15:05:00,
2013-01-14 07:10:00,39.7,19.6,30.33,ENE,72,0.0,0.0,44,0.00,,,0.00,WeatherTracker,2013-01-14 15:10:00,
2013-01-14 07:15:00,39.7,19.6,30.33,East,79,3.0,0.0,44,0.00,,,0.00,WeatherTracker,2013-01-14 15:15:00,
2013-01-14 07:20:00,39.7,20.1,30.34,East,96,2.0,0.0,45,0.00,,,0.00,WeatherTracker,2013-01-14 15:20:00,
2013-01-14 07:25:00,39.7,20.1,30.34,SE,127,0.0,0.0,45,0.00,,,0.00,WeatherTracker,2013-01-14 15:25:00,
2013-01-14 07:30:00,39.6,20.0,30.34,East,86,1.0,0.0,45,0.00,,,0.00,WeatherTracker,2013-01-14 15:30:00,
2013-01-14 07:35:00,39.6,20.5,30.34,ENE,69,2.0,0.0,46,0.00,,,0.00,WeatherTracker,2013-01-14 15:35:00,
2013-01-14 07:40:00,39.9,20.3,30.34,ESE,103,2.0,0.0,45,0.00,,,0.00,WeatherTracker,2013-01-14 15:40:00,
2013-01-14 07:45:00,40.5,20.3,30.34,East,84,1.0,0.0,44,0.00,,,0.00,WeatherTracker,2013-01-14 15:45:00,
2013-01-14 07:50:00,40.7,20.0,30.34,ENE,72,1.0,0.0,43,0.00,,,0.00,WeatherTracker,2013-01-14 15:50:00,
2013-01-14 07:55:00,40.9,20.7,30.34,ENE,68,2.0,0.0,44,0.00,,,0.00,WeatherTracker,2013-01-14 15:55:00,
2013-01-14 08:00:00,41.2,20.4,30.35,SE,134,2.0,0.0,43,0.00,,,0.00,WeatherTracker,2013-01-14 16:00:00,
2013-01-14 08:05:00,41.4,20.0,30.35,East,91,2.0,0.0,42,0.00,,,0.00,WeatherTracker,2013-01-14 16:05:00,
2013-01-14 08:11:00,41.5,20.1,30.35,East,90,3.0,0.0,42,0.00,,,0.00,WeatherTracker,2013-01-14 16:11:00,
2013-01-14 08:16:00,41.6,19.7,30.36,East,90,3.0,0.0,41,0.00,,,0.00,WeatherTracker,2013-01-14 16:16:00,
2013-01-14 08:21:00,41.6,19.7,30.36,East,101,8.0,0.0,41,0.00,,,0.00,WeatherTracker,2013-01-14 16:21:00,
2013-01-14 08:26:00,41.6,19.7,30.36,East,91,4.0,0.0,41,0.00,,,0.00,WeatherTracker,2013-01-14 16:26:00,
2013-01-14 08:31:00,41.5,19.0,30.36,East,93,4.0,0.0,40,0.00,,,0.00,WeatherTracker,2013-01-14 16:31:00,
2013-01-14 08:36:00,41.5,18.4,30.37,East,100,6.0,0.0,39,0.00,,,0.00,WeatherTracker,2013-01-14 16:36:00,
2013-01-14 08:41:00,41.6,18.5,30.37,East,93,4.0,0.0,39,0.00,,,0.00,WeatherTracker,2013-01-14 16:41:00,
2013-01-14 08:46:00,41.6,18.5,30.37,East,94,6.0,0.0,39,0.00,,,0.00,WeatherTracker,2013-01-14 16:46:00,
2013-01-14 08:51:00,41.9,19.4,30.37,ENE,77,4.0,0.0,40,0.00,,,0.00,WeatherTracker,2013-01-14 16:51:00,
2013-01-14 08:56:00,42.0,18.9,30.37,East,101,3.0,0.0,39,0.00,,,0.00,WeatherTracker,2013-01-14 16:56:00,
2013-01-14 09:01:00,41.9,18.8,30.38,East,81,7.0,0.0,39,0.00,,,0.00,WeatherTracker,2013-01-14 17:01:00,
2013-01-14 09:06:00,42.1,18.9,30.38,ESE,118,4.0,0.0,39,0.00,,,0.00,WeatherTracker,2013-01-14 17:06:00,
2013-01-14 09:11:00,42.4,18.6,30.38,SE,132,3.0,0.0,38,0.00,,,0.00,WeatherTracker,2013-01-14 17:11:00,
2013-01-14 09:16:00,42.8,19.0,30.38,East,79,1.0,0.0,38,0.00,,,0.00,WeatherTracker,2013-01-14 17:16:00,
2013-01-14 09:21:00,42.6,18.2,30.38,East,98,2.0,0.0,37,0.00,,,0.00,WeatherTracker,2013-01-14 17:21:00,
2013-01-14 09:26:00,42.8,18.4,30.38,ENE,59,5.0,0.0,37,0.00,,,0.00,WeatherTracker,2013-01-14 17:26:00,
2013-01-14 09:31:00,42.9,18.4,30.38,East,80,6.0,0.0,37,0.00,,,0.00,WeatherTracker,2013-01-14 17:31:00,
2013-01-14 09:36:00,42.9,18.4,30.38,East,90,8.0,0.0,37,0.00,,,0.00,WeatherTracker,2013-01-14 17:36:00,
2013-01-14 09:41:00,43.0,18.5,30.38,NE,39,3.0,0.0,37,0.00,,,0.00,WeatherTracker,2013-01-14 17:41:00,
2013-01-14 09:46:00,43.1,18.6,30.38,East,80,6.0,0.0,37,0.00,,,0.00,WeatherTracker,2013-01-14 17:46:00,
2013-01-14 09:51:00,43.3,17.5,30.38,East,82,4.0,0.0,35,0.00,,,0.00,WeatherTracker,2013-01-14 17:51:00,
2013-01-14 09:56:00,43.6,17.1,30.38,ENE,68,3.0,0.0,34,0.00,,,0.00,WeatherTracker,2013-01-14 17:56:00,
2013-01-14 10:01:00,43.9,18.0,30.38,East,80,7.0,0.0,35,0.00,,,0.00,WeatherTracker,2013-01-14 18:01:00,
2013-01-14 10:07:00,43.8,18.6,30.38,East,96,4.0,0.0,36,0.00,,,0.00,WeatherTracker,2013-01-14 18:07:00,
2013-01-14 10:12:00,43.8,16.6,30.38,East,93,1.0,0.0,33,0.00,,,0.00,WeatherTracker,2013-01-14 18:12:00,
2013-01-14 10:17:00,44.3,17.0,30.38,NNE,19,8.0,0.0,33,0.00,,,0.00,WeatherTracker,2013-01-14 18:17:00,
2013-01-14 10:22:00,44.4,17.1,30.38,ENE,62,7.0,0.0,33,0.00,,,0.00,WeatherTracker,2013-01-14 18:22:00,
2013-01-14 10:27:00,44.2,17.6,30.38,ENE,61,4.0,0.0,34,0.00,,,0.00,WeatherTracker,2013-01-14 18:27:00,
2013-01-14 10:32:00,44.7,17.4,30.38,NE,47,7.0,0.0,33,0.00,,,0.00,WeatherTracker,2013-01-14 18:32:00,
2013-01-14 10:37:00,44.9,17.6,30.38,ENE,58,4.0,0.0,33,0.00,,,0.00,WeatherTracker,2013-01-14 18:37:00,
2013-01-14 10:42:00,45.0,16.9,30.38,SE,133,5.0,0.0,32,0.00,,,0.00,WeatherTracker,2013-01-14 18:42:00,
2013-01-14 10:47:00,45.0,16.9,30.38,NE,43,3.0,0.0,32,0.00,,,0.00,WeatherTracker,2013-01-14 18:47:00,
2013-01-14 10:52:00,45.3,17.9,30.38,NNE,26,5.0,0.0,33,0.00,,,0.00,WeatherTracker,2013-01-14 18:52:00,
2013-01-14 10:57:00,45.5,15.9,30.38,East,80,7.0,0.0,30,0.00,,,0.00,WeatherTracker,2013-01-14 18:57:00,
2013-01-14 11:02:00,45.8,16.1,30.38,North,351,6.0,0.0,30,0.00,,,0.00,WeatherTracker,2013-01-14 19:02:00,
2013-01-14 11:07:00,45.7,16.8,30.38,NE,56,8.0,0.0,31,0.00,,,0.00,WeatherTracker,2013-01-14 19:07:00,
2013-01-14 11:12:00,46.1,17.2,30.38,NE,49,8.0,0.0,31,0.00,,,0.00,WeatherTracker,2013-01-14 19:12:00,
2013-01-14 11:17:00,46.2,16.5,30.37,NE,56,9.0,0.0,30,0.00,,,0.00,WeatherTracker,2013-01-14 19:17:00,
2013-01-14 11:22:00,46.1,16.4,30.37,NNE,23,9.0,0.0,30,0.00,,,0.00,WeatherTracker,2013-01-14 19:22:00,
2013-01-14 11:27:00,46.2,16.5,30.37,NE,40,14.0,0.0,30,0.00,,,0.00,WeatherTracker,2013-01-14 19:27:00,
2013-01-14 11:32:00,46.3,16.6,30.37,ENE,73,8.0,0.0,30,0.00,,,0.00,WeatherTracker,2013-01-14 19:32:00,
2013-01-14 11:37:00,46.3,16.6,30.36,NE,34,6.0,0.0,30,0.00,,,0.00,WeatherTracker,2013-01-14 19:37:00,
2013-01-14 11:42:00,46.4,16.7,30.36,NE,40,4.0,0.0,30,0.00,,,0.00,WeatherTracker,2013-01-14 19:42:00,
2013-01-14 11:47:00,46.8,17.8,30.36,NNW,342,9.0,0.0,31,0.00,,,0.00,WeatherTracker,2013-01-14 19:47:00,
2013-01-14 11:52:00,47.1,17.3,30.36,NNE,33,6.0,0.0,30,0.00,,,0.00,WeatherTracker,2013-01-14 19:52:00,
2013-01-14 11:57:00,47.0,17.2,30.36,NE,39,8.0,0.0,30,0.00,,,0.00,WeatherTracker,2013-01-14 19:57:00,
2013-01-14 12:02:00,46.9,17.1,30.35,ENE,65,11.0,0.0,30,0.00,,,0.00,WeatherTracker,2013-01-14 20:02:00,
2013-01-14 12:08:00,46.9,17.1,30.35,NE,34,5.0,0.0,30,0.00,,,0.00,WeatherTracker,2013-01-14 20:08:00,
2013-01-14 12:13:00,47.5,17.6,30.34,ENE,63,7.0,0.0,30,0.00,,,0.00,WeatherTracker,2013-01-14 20:13:00,
2013-01-14 12:18:00,47.5,17.6,30.34,ENE,58,8.0,0.0,30,0.00,,,0.00,WeatherTracker,2013-01-14 20:18:00,
2013-01-14 12:23:00,47.5,16.8,30.34,ENE,60,9.0,0.0,29,0.00,,,0.00,WeatherTracker,2013-01-14 20:23:00,
2013-01-14 12:28:00,47.5,16.8,30.34,NE,49,4.0,0.0,29,0.00,,,0.00,WeatherTracker,2013-01-14 20:28:00,
2013-01-14 12:33:00,47.7,17.0,30.34,NNE,15,3.0,0.0,29,0.00,,,0.00,WeatherTracker,2013-01-14 20:33:00,
2013-01-14 12:38:00,48.0,17.3,30.33,NNE,32,5.0,0.0,29,0.00,,,0.00,WeatherTracker,2013-01-14 20:38:00,
2013-01-14 12:43:00,48.2,16.6,30.33,NE,51,3.0,0.0,28,0.00,,,0.00,WeatherTracker,2013-01-14 20:43:00,
2013-01-14 12:48:00,48.3,17.5,30.33,East,91,5.0,0.0,29,0.00,,,0.00,WeatherTracker,2013-01-14 20:48:00,
2013-01-14 12:53:00,48.6,18.6,30.34,East,88,3.0,0.0,30,0.00,,,0.00,WeatherTracker,2013-01-14 20:53:00,
2013-01-14 12:58:00,48.7,17.1,30.34,North,353,5.0,0.0,28,0.00,,,0.00,WeatherTracker,2013-01-14 20:58:00,
2013-01-14 13:03:00,48.3,16.7,30.34,NNE,27,9.0,0.0,28,0.00,,,0.00,WeatherTracker,2013-01-14 21:03:00,
2013-01-14 13:08:00,48.4,17.6,30.34,NNE,23,5.0,0.0,29,0.00,,,0.00,WeatherTracker,2013-01-14 21:08:00,
2013-01-14 13:13:00,49.0,17.3,30.34,NNE,23,7.0,0.0,28,0.00,,,0.00,WeatherTracker,2013-01-14 21:13:00,
2013-01-14 13:18:00,49.1,17.4,30.33,East,82,1.0,0.0,28,0.00,,,0.00,WeatherTracker,2013-01-14 21:18:00,
2013-01-14 13:23:00,49.5,16.9,30.34,North,350,5.0,0.0,27,0.00,,,0.00,WeatherTracker,2013-01-14 21:23:00,
2013-01-14 13:28:00,49.6,17.0,30.33,ENE,68,9.0,0.0,27,0.00,,,0.00,WeatherTracker,2013-01-14 21:28:00,
2013-01-14 13:33:00,49.3,15.9,30.34,NNE,27,5.0,0.0,26,0.00,,,0.00,WeatherTracker,2013-01-14 21:33:00,
2013-01-14 13:38:00,49.3,16.8,30.34,NNE,31,5.0,0.0,27,0.00,,,0.00,WeatherTracker,2013-01-14 21:38:00,
2013-01-14 13:44:00,49.4,17.7,30.34,ENE,68,5.0,0.0,28,0.00,,,0.00,WeatherTracker,2013-01-14 21:44:00,
2013-01-14 13:49:00,49.3,16.8,30.34,NNE,26,5.0,0.0,27,0.00,,,0.00,WeatherTracker,2013-01-14 21:49:00,
2013-01-14 13:54:00,49.6,17.0,30.34,NNE,27,3.0,0.0,27,0.00,,,0.00,WeatherTracker,2013-01-14 21:54:00,
2013-01-14 13:59:00,49.8,18.0,30.34,NNW,335,2.0,0.0,28,0.00,,,0.00,WeatherTracker,2013-01-14 21:59:00,
2013-01-14 14:04:00,50.4,17.7,30.34,WNW,298,2.0,0.0,27,0.00,,,0.00,WeatherTracker,2013-01-14 22:04:00,
2013-01-14 14:09:00,50.3,17.6,30.34,NNE,21,4.0,0.0,27,0.00,,,0.00,WeatherTracker,2013-01-14 22:09:00,
2013-01-14 14:14:00,50.3,18.5,30.34,East,98,0.0,0.0,28,0.00,,,0.00,WeatherTracker,2013-01-14 22:14:00,
2013-01-14 14:19:00,50.2,18.4,30.34,NW,314,6.0,0.0,28,0.00,,,0.00,WeatherTracker,2013-01-14 22:19:00,
2013-01-14 14:24:00,50.3,18.5,30.34,North,5,6.0,0.0,28,0.00,,,0.00,WeatherTracker,2013-01-14 22:24:00,
2013-01-14 14:29:00,50.4,18.5,30.34,NNW,342,3.0,0.0,28,0.00,,,0.00,WeatherTracker,2013-01-14 22:29:00,
2013-01-14 14:34:00,50.4,18.5,30.34,NNE,27,4.0,0.0,28,0.00,,,0.00,WeatherTracker,2013-01-14 22:34:00,
2013-01-14 14:39:00,50.4,19.4,30.35,NW,304,8.0,0.0,29,0.00,,,0.00,WeatherTracker,2013-01-14 22:39:00,
2013-01-14 14:44:00,50.4,18.5,30.35,North,10,2.0,0.0,28,0.00,,,0.00,WeatherTracker,2013-01-14 22:44:00,
2013-01-14 14:49:00,50.3,20.1,30.35,NE,43,6.0,0.0,30,0.00,,,0.00,WeatherTracker,2013-01-14 22:49:00,
2013-01-14 14:54:00,51.0,20.7,30.35,NNE,30,5.0,0.0,30,0.00,,,0.00,WeatherTracker,2013-01-14 22:54:00,
2013-01-14 14:59:00,51.1,19.1,30.35,NNE,18,3.0,0.0,28,0.00,,,0.00,WeatherTracker,2013-01-14 22:59:00,
2013-01-14 15:04:00,50.8,18.9,30.35,NNW,333,2.0,0.0,28,0.00,,,0.00,WeatherTracker,2013-01-14 23:04:00,
2013-01-14 15:09:00,50.6,19.5,30.35,NNW,335,8.0,0.0,29,0.00,,,0.00,WeatherTracker,2013-01-14 23:09:00,
2013-01-14 15:14:00,50.6,18.7,30.35,NNW,333,2.0,0.0,28,0.00,,,0.00,WeatherTracker,2013-01-14 23:14:00,
2013-01-14 15:19:00,50.5,19.4,30.35,NNW,338,7.0,0.0,29,0.00,,,0.00,WeatherTracker,2013-01-14 23:19:00,
2013-01-14 15:24:00,50.5,19.4,30.35,NE,49,7.0,0.0,29,0.00,,,0.00,WeatherTracker,2013-01-14 23:24:00,
2013-01-14 15:29:00,50.6,19.5,30.35,NW,309,1.0,0.0,29,0.00,,,0.00,WeatherTracker,2013-01-14 23:29:00,
2013-01-14 15:34:00,50.9,20.6,30.35,WNW,285,2.0,0.0,30,0.00,,,0.00,WeatherTracker,2013-01-14 23:34:00,
2013-01-14 15:39:00,51.2,19.2,30.35,NNW,332,3.0,0.0,28,0.00,,,0.00,WeatherTracker,2013-01-14 23:39:00,
2013-01-14 15:45:00,51.2,19.2,30.36,WNW,300,0.0,0.0,28,0.00,,,0.00,WeatherTracker,2013-01-14 23:45:00,
2013-01-14 15:50:00,51.4,19.4,30.35,NNE,18,5.0,0.0,28,0.00,,,0.00,WeatherTracker,2013-01-14 23:50:00,
2013-01-14 15:55:00,51.2,19.2,30.35,NNE,23,1.0,0.0,28,0.00,,,0.00,WeatherTracker,2013-01-14 23:55:00,
2013-01-14 16:00:00,51.1,20.0,30.35,NNW,330,3.0,0.0,29,0.00,,,0.00,WeatherTracker,2013-01-15 00:00:00,
2013-01-14 16:05:00,51.0,19.9,30.35,NNW,327,1.0,0.0,29,0.00,,,0.00,WeatherTracker,2013-01-15 00:05:00,
2013-01-14 16:10:00,51.0,20.7,30.35,NW,325,2.0,0.0,30,0.00,,,0.00,WeatherTracker,2013-01-15 00:10:00,
2013-01-14 16:15:00,50.8,22.0,30.35,West,274,3.0,0.0,32,0.00,,,0.00,WeatherTracker,2013-01-15 00:15:00,
2013-01-14 16:20:00,50.7,21.9,30.35,West,270,3.0,0.0,32,0.00,,,0.00,WeatherTracker,2013-01-15 00:20:00,
2013-01-14 16:25:00,50.6,21.8,30.35,WNW,294,5.0,0.0,32,0.00,,,0.00,WeatherTracker,2013-01-15 00:25:00,
2013-01-14 16:30:00,50.7,21.2,30.35,WNW,298,2.0,0.0,31,0.00,,,0.00,WeatherTracker,2013-01-15 00:30:00,
2013-01-14 16:35:00,50.6,22.6,30.35,WNW,288,4.0,0.0,33,0.00,,,0.00,WeatherTracker,2013-01-15 00:35:00,
2013-01-14 16:40:00,50.4,22.4,30.35,WNW,293,3.0,0.0,33,0.00,,,0.00,WeatherTracker,2013-01-15 00:40:00,
2013-01-14 16:45:00,50.1,22.1,30.35,WNW,288,2.0,0.0,33,0.00,,,0.00,WeatherTracker,2013-01-15 00:45:00,
2013-01-14 16:50:00,49.9,22.0,30.35,WNW,301,4.0,0.0,33,0.00,,,0.00,WeatherTracker,2013-01-15 00:50:00,
2013-01-14 16:55:00,49.7,22.5,30.35,WSW,257,4.0,0.0,34,0.00,,,0.00,WeatherTracker,2013-01-15 00:55:00,
2013-01-14 17:00:00,49.5,22.3,30.35,WNW,285,2.0,0.0,34,0.00,,,0.00,WeatherTracker,2013-01-15 01:00:00,
2013-01-14 17:05:00,49.4,22.2,30.35,NNE,19,0.0,0.0,34,0.00,,,0.00,WeatherTracker,2013-01-15 01:05:00,
2013-01-14 17:10:00,49.3,22.8,30.34,West,259,0.0,0.0,35,0.00,,,0.00,WeatherTracker,2013-01-15 01:10:00,
2013-01-14 17:15:00,49.2,22.7,30.35,West,274,0.0,0.0,35,0.00,,,0.00,WeatherTracker,2013-01-15 01:15:00,
2013-01-14 17:20:00,49.2,22.7,30.35,NW,318,2.0,0.0,35,0.00,,,0.00,WeatherTracker,2013-01-15 01:20:00,
2013-01-14 17:25:00,49.2,22.0,30.35,NNW,335,0.0,0.0,34,0.00,,,0.00,WeatherTracker,2013-01-15 01:25:00,
2013-01-14 17:30:00,49.1,22.6,30.35,NW,314,1.0,0.0,35,0.00,,,0.00,WeatherTracker,2013-01-15 01:30:00,
2013-01-14 17:35:00,49.0,22.6,30.35,WNW,298,1.0,0.0,35,0.00,,,0.00,WeatherTracker,2013-01-15 01:35:00,
2013-01-14 17:40:00,49.0,23.2,30.35,NW,312,2.0,0.0,36,0.00,,,0.00,WeatherTracker,2013-01-15 01:40:00,
2013-01-14 17:45:00,49.0,23.2,30.35,NW,304,3.0,0.0,36,0.00,,,0.00,WeatherTracker,2013-01-15 01:45:00,
2013-01-14 17:50:00,48.9,24.4,30.35,WNW,290,4.0,0.0,38,0.00,,,0.00,WeatherTracker,2013-01-15 01:50:00,
2013-01-14 17:55:00,48.8,24.3,30.35,WNW,290,3.0,0.0,38,0.00,,,0.00,WeatherTracker,2013-01-15 01:55:00,
2013-01-14 18:00:00,48.5,26.5,30.35,West,274,2.0,0.0,42,0.00,,,0.00,WeatherTracker,2013-01-15 02:00:00,
2013-01-14 18:05:00,48.2,27.3,30.35,WSW,249,3.0,0.0,44,0.00,,,0.00,WeatherTracker,2013-01-15 02:05:00,
2013-01-14 18:11:00,48.0,28.2,30.35,WSW,245,3.0,0.0,46,0.00,,,0.00,WeatherTracker,2013-01-15 02:11:00,
2013-01-14 18:16:00,47.9,28.7,30.35,West,275,2.0,0.0,47,0.00,,,0.00,WeatherTracker,2013-01-15 02:16:00,
2013-01-14 18:21:00,47.8,28.6,30.35,West,278,0.0,0.0,47,0.00,,,0.00,WeatherTracker,2013-01-15 02:21:00,
2013-01-14 18:26:00,47.7,29.5,30.35,West,260,0.0,0.0,49,0.00,,,0.00,WeatherTracker,2013-01-15 02:26:00,
2013-01-14 18:31:00,47.5,29.8,30.35,WSW,249,1.0,0.0,50,0.00,,,0.00,WeatherTracker,2013-01-15 02:31:00,
2013-01-14 18:36:00,47.4,30.2,30.35,WSW,242,1.0,0.0,51,0.00,,,0.00,WeatherTracker,2013-01-15 02:36:00,
2013-01-14 18:41:00,47.3,30.6,30.35,WSW,250,2.0,0.0,52,0.00,,,0.00,WeatherTracker,2013-01-15 02:41:00,
2013-01-14 18:46:00,47.2,31.0,30.35,WSW,257,2.0,0.0,53,0.00,,,0.00,WeatherTracker,2013-01-15 02:46:00,
2013-01-14 18:51:00,47.1,30.9,30.35,West,259,3.0,0.0,53,0.00,,,0.00,WeatherTracker,2013-01-15 02:51:00,
2013-01-14 18:56:00,47.2,31.4,30.35,SW,236,1.0,0.0,54,0.00,,,0.00,WeatherTracker,2013-01-15 02:56:00,
2013-01-14 19:01:00,47.1,31.3,30.35,WSW,240,1.0,0.0,54,0.00,,,0.00,WeatherTracker,2013-01-15 03:01:00,
2013-01-14 19:06:00,47.1,31.8,30.35,WSW,255,2.0,0.0,55,0.00,,,0.00,WeatherTracker,2013-01-15 03:06:00,
2013-01-14 19:11:00,47.0,32.1,30.35,WSW,250,1.0,0.0,56,0.00,,,0.00,WeatherTracker,2013-01-15 03:11:00,
2013-01-14 19:16:00,47.1,32.2,30.35,WSW,238,1.0,0.0,56,0.00,,,0.00,WeatherTracker,2013-01-15 03:16:00,
2013-01-14 19:21:00,47.0,32.6,30.35,WSW,252,4.0,0.0,57,0.00,,,0.00,WeatherTracker,2013-01-15 03:21:00,
2013-01-14 19:26:00,47.1,33.1,30.35,WSW,249,2.0,0.0,58,0.00,,,0.00,WeatherTracker,2013-01-15 03:26:00,
2013-01-14 19:31:00,47.0,33.0,30.35,WSW,245,1.0,0.0,58,0.00,,,0.00,WeatherTracker,2013-01-15 03:31:00,
2013-01-14 19:36:00,46.9,33.3,30.35,West,262,0.0,0.0,59,0.00,,,0.00,WeatherTracker,2013-01-15 03:36:00,
2013-01-14 19:41:00,46.9,33.3,30.36,West,267,0.0,0.0,59,0.00,,,0.00,WeatherTracker,2013-01-15 03:41:00,
2013-01-14 19:46:00,46.7,33.6,30.36,West,266,0.0,0.0,60,0.00,,,0.00,WeatherTracker,2013-01-15 03:46:00,
2013-01-14 19:51:00,46.6,33.9,30.36,West,266,0.0,0.0,61,0.00,,,0.00,WeatherTracker,2013-01-15 03:51:00,
2013-01-14 19:56:00,46.5,33.8,30.35,SW,224,0.0,0.0,61,0.00,,,0.00,WeatherTracker,2013-01-15 03:56:00,
2013-01-14 20:01:00,46.5,34.2,30.36,SW,231,0.0,0.0,62,0.00,,,0.00,WeatherTracker,2013-01-15 04:01:00,
2013-01-14 20:06:00,46.6,33.9,30.35,WSW,252,0.0,0.0,61,0.00,,,0.00,WeatherTracker,2013-01-15 04:06:00,
2013-01-14 20:11:00,46.5,33.8,30.35,SW,233,0.0,0.0,61,0.00,,,0.00,WeatherTracker,2013-01-15 04:11:00,
2013-01-14 20:16:00,46.4,34.1,30.36,SW,236,0.0,0.0,62,0.00,,,0.00,WeatherTracker,2013-01-15 04:16:00,
2013-01-14 20:21:00,46.2,33.5,30.36,SW,236,0.0,0.0,61,0.00,,,0.00,WeatherTracker,2013-01-15 04:21:00,
2013-01-14 20:26:00,46.1,33.8,30.36,SW,236,0.0,0.0,62,0.00,,,0.00,WeatherTracker,2013-01-15 04:26:00,
2013-01-14 20:31:00,46.0,33.7,30.36,SW,236,0.0,0.0,62,0.00,,,0.00,WeatherTracker,2013-01-15 04:31:00,
2013-01-14 20:37:00,45.8,33.9,30.36,SW,236,0.0,0.0,63,0.00,,,0.00,WeatherTracker,2013-01-15 04:37:00,
2013-01-14 20:42:00,45.7,33.8,30.36,SW,236,0.0,0.0,63,0.00,,,0.00,WeatherTracker,2013-01-15 04:42:00,
2013-01-14 20:47:00,45.7,35.0,30.36,SW,236,0.0,0.0,66,0.00,,,0.00,WeatherTracker,2013-01-15 04:47:00,
2013-01-14 20:52:00,45.9,34.4,30.36,SW,236,0.0,0.0,64,0.00,,,0.00,WeatherTracker,2013-01-15 04:52:00,
2013-01-14 20:57:00,45.9,34.4,30.35,SW,236,0.0,0.0,64,0.00,,,0.00,WeatherTracker,2013-01-15 04:57:00,
2013-01-14 21:00:00,46.0,34.5,30.35,SW,236,0.0,0.0,64,0.00,,,0.00,WeatherTracker,2013-01-15 05:00:00,
2013-01-14 21:01:00,46.0,34.5,30.35,SW,236,0.0,0.0,64,0.00,,,0.00,WeatherTracker,2013-01-15 05:01:00,
2013-01-14 21:06:00,45.8,34.3,30.35,SW,236,0.0,0.0,64,0.00,,,0.00,WeatherTracker,2013-01-15 05:06:00,
2013-01-14 21:11:00,45.7,34.2,30.35,SW,236,0.0,0.0,64,0.00,,,0.00,WeatherTracker,2013-01-15 05:11:00,
2013-01-14 21:16:00,45.5,34.0,30.35,SW,236,0.0,0.0,64,0.00,,,0.00,WeatherTracker,2013-01-15 05:16:00,
2013-01-14 21:21:00,45.6,34.9,30.35,SW,236,0.0,0.0,66,0.00,,,0.00,WeatherTracker,2013-01-15 05:21:00,
2013-01-14 21:26:00,45.5,34.0,30.35,SW,236,0.0,0.0,64,0.00,,,0.00,WeatherTracker,2013-01-15 05:26:00,
2013-01-14 21:31:00,45.0,33.6,30.35,SW,236,0.0,0.0,64,0.00,,,0.00,WeatherTracker,2013-01-15 05:31:00,
2013-01-14 21:36:00,44.4,33.4,30.35,SW,236,0.0,0.0,65,0.00,,,0.00,WeatherTracker,2013-01-15 05:36:00,
2013-01-14 21:41:00,44.3,34.0,30.35,SSW,207,1.0,0.0,67,0.00,,,0.00,WeatherTracker,2013-01-15 05:41:00,
2013-01-14 21:46:00,44.4,33.4,30.35,SSW,205,0.0,0.0,65,0.00,,,0.00,WeatherTracker,2013-01-15 05:46:00,
2013-01-14 21:51:00,44.6,34.7,30.36,SSW,205,0.0,0.0,68,0.00,,,0.00,WeatherTracker,2013-01-15 05:51:00,
2013-01-14 21:56:00,44.4,34.1,30.36,SSW,205,0.0,0.0,67,0.00,,,0.00,WeatherTracker,2013-01-15 05:56:00,
2013-01-14 22:01:00,44.5,34.2,30.36,SSW,205,0.0,0.0,67,0.00,,,0.00,WeatherTracker,2013-01-15 06:01:00,
2013-01-14 22:06:00,44.8,34.5,30.36,SSW,205,0.0,0.0,67,0.00,,,0.00,WeatherTracker,2013-01-15 06:06:00,
2013-01-14 22:11:00,44.7,34.4,30.36,SSW,204,0.0,0.0,67,0.00,,,0.00,WeatherTracker,2013-01-15 06:11:00,
2013-01-14 22:16:00,44.8,34.5,30.36,ESE,121,0.0,0.0,67,0.00,,,0.00,WeatherTracker,2013-01-15 06:16:00,
2013-01-14 22:21:00,44.6,34.7,30.36,ESE,122,0.0,0.0,68,0.00,,,0.00,WeatherTracker,2013-01-15 06:21:00,
2013-01-14 22:26:00,44.4,34.5,30.36,ESE,123,0.0,0.0,68,0.00,,,0.00,WeatherTracker,2013-01-15 06:26:00,
2013-01-14 22:31:00,44.4,34.5,30.36,SSE,159,0.0,0.0,68,0.00,,,0.00,WeatherTracker,2013-01-15 06:31:00,
2013-01-14 22:36:00,44.1,33.9,30.36,ESE,113,0.0,0.0,67,0.00,,,0.00,WeatherTracker,2013-01-15 06:36:00,
2013-01-14 22:42:00,44.0,34.5,30.36,ESE,115,0.0,0.0,69,0.00,,,0.00,WeatherTracker,2013-01-15 06:42:00,
2013-01-14 22:47:00,44.0,34.9,30.36,ESE,114,0.0,0.0,70,0.00,,,0.00,WeatherTracker,2013-01-15 06:47:00,
2013-01-14 22:52:00,44.1,35.0,30.37,East,89,0.0,0.0,70,0.00,,,0.00,WeatherTracker,2013-01-15 06:52:00,
2013-01-14 22:57:00,44.1,34.6,30.37,East,89,0.0,0.0,69,0.00,,,0.00,WeatherTracker,2013-01-15 06:57:00,
2013-01-14 23:02:00,43.7,34.2,30.37,East,89,0.0,0.0,69,0.00,,,0.00,WeatherTracker,2013-01-15 07:02:00,
2013-01-14 23:07:00,43.2,34.1,30.37,East,89,0.0,0.0,70,0.00,,,0.00,WeatherTracker,2013-01-15 07:07:00,
2013-01-14 23:12:00,43.0,34.3,30.37,East,89,0.0,0.0,71,0.00,,,0.00,WeatherTracker,2013-01-15 07:12:00,
2013-01-14 23:17:00,42.9,34.5,30.37,SSE,158,0.0,0.0,72,0.00,,,0.00,WeatherTracker,2013-01-15 07:17:00,
2013-01-14 23:22:00,42.9,34.5,30.37,SSE,158,0.0,0.0,72,0.00,,,0.00,WeatherTracker,2013-01-15 07:22:00,
2013-01-14 23:27:00,42.9,34.9,30.38,SSE,168,0.0,0.0,73,0.00,,,0.00,WeatherTracker,2013-01-15 07:27:00,
2013-01-14 23:32:00,42.9,34.9,30.38,SSE,167,0.0,0.0,73,0.00,,,0.00,WeatherTracker,2013-01-15 07:32:00,
2013-01-14 23:37:00,42.9,34.9,30.38,SSE,167,0.0,0.0,73,0.00,,,0.00,WeatherTracker,2013-01-15 07:37:00,
2013-01-14 23:42:00,42.8,34.8,30.38,SSE,167,0.0,0.0,73,0.00,,,0.00,WeatherTracker,2013-01-15 07:42:00,
2013-01-14 23:47:00,42.7,35.0,30.37,SW,231,2.0,0.0,74,0.00,,,0.00,WeatherTracker,2013-01-15 07:47:00,
2013-01-14 23:52:00,42.8,35.1,30.37,SW,226,0.0,0.0,74,0.00,,,0.00,WeatherTracker,2013-01-15 07:52:00,
2013-01-14 23:57:00,42.8,35.1,30.37,SW,224,0.0,0.0,74,0.00,,,0.00,WeatherTracker,2013-01-15 07:57:00,